New River MCAS, NC

4:19 PM EDT on March 24, 2017 (GMT -0400)
New River Marine Corps Air Station

Weather History for KNCA - December, 2011

Change the Weather History Date:

Friday, December 2, 2011

  Actual Average Record
Temperature  
Mean Temperature 44 °F -  
Max Temperature 61 °F 60 °F 77 °F (2015)
Min Temperature 28 °F 37 °F 22 °F (2002)
Degree Days  
Heating Degree Days 20    
Moisture  
Dew Point 31 °F    
Average Humidity 73    
Maximum Humidity 100    
Minimum Humidity 31    
Precipitation  
Precipitation 0.00 in - - ()
Sea Level Pressure  
Sea Level Pressure 30.42 in    
Wind  
Wind Speed 0 mph (NW)    
Max Wind Speed 5 mph    
Max Gust Speed -    
Visibility 10 miles    
Events      
Averages and records for this station are not official NWS values.
T = Trace of Precipitation, MM = Missing Value Source: NWS Daily Summary

Daily Weather History Graph

Daily Weather History Graph

Search for Another Location

Airport or City:

Trip Planner

Search our weather history database for the weather conditions in past years. The results will help you decide how hot, cold, wet, or windy it might be!

Date:

Astronomy

Dec. 02, 2011 Rise Set
Actual Time 6:59 AM EST 4:58 PM EST
Civil Twilight 6:31 AM EST 5:26 PM EST
Nautical Twilight 6:00 AM EST 5:57 PM EST
Astronomical Twilight 5:30 AM EST 6:28 PM EST
Moon 12:22 PM EST (12/2) No Moon Set
Length of Visible Light 10h 54m
Length of Day
9h 59m
First Quarter, 53% of the Moon is Illuminated
Dec 2
First Quarter
Dec 10
Full
Dec 17
Last Quarter
Dec 24
New
Jan 1
First Quarter

Hourly Weather History & Observations

Time (EST) Temp. Windchill Dew Point Humidity Pressure Visibility Wind Dir Wind Speed Gust Speed Precip Events Conditions
12:56 AM 30.9 °F - 30.0 °F 96% 30.38 in 10.0 mi Calm Calm - N/A   Clear
1:56 AM 30.0 °F - 30.0 °F 100% 30.38 in 10.0 mi Calm Calm - N/A   Clear
2:56 AM 28.9 °F - 28.0 °F 96% 30.38 in 10.0 mi Calm Calm - N/A   Clear
3:56 AM 28.9 °F - 28.0 °F 96% 30.38 in 10.0 mi Calm Calm - N/A   Clear
4:56 AM 28.9 °F - 28.0 °F 96% 30.38 in 10.0 mi Calm Calm - N/A   Clear
5:56 AM 28.9 °F - 28.0 °F 96% 30.39 in 10.0 mi Calm Calm - N/A   Clear
6:56 AM 28.0 °F - 27.0 °F 96% 30.42 in 10.0 mi Calm Calm - N/A   Clear
7:56 AM 32.0 °F - 30.0 °F 92% 30.44 in 10.0 mi Calm Calm - N/A   Clear
8:56 AM 41.0 °F 39.0 °F 33.1 °F 73% 30.45 in 10.0 mi Variable 3.5 mph - N/A   Clear
9:56 AM 48.9 °F - 32.0 °F 52% 30.46 in 10.0 mi NNW 4.6 mph - N/A   Clear
10:56 AM 53.1 °F - 28.9 °F 40% 30.45 in 10.0 mi Calm Calm - N/A   Clear
11:56 AM 55.0 °F - 28.9 °F 37% 30.43 in 10.0 mi Calm Calm - N/A   Clear
12:56 PM 57.9 °F - 28.0 °F 32% 30.40 in 10.0 mi Calm Calm - N/A   Clear
1:56 PM 60.1 °F - 30.0 °F 32% 30.38 in 10.0 mi Calm Calm - N/A   Clear
2:56 PM 61.0 °F - 30.0 °F 31% 30.38 in 10.0 mi Calm Calm - N/A   Clear
3:56 PM 60.1 °F - 30.9 °F 33% 30.39 in 10.0 mi NW 4.6 mph - N/A   Clear
4:56 PM 54.0 °F - 30.9 °F 41% 30.40 in 10.0 mi Calm Calm - N/A   Clear
5:56 PM 46.0 °F - 37.9 °F 73% 30.41 in 10.0 mi Calm Calm - N/A   Clear
6:56 PM 46.0 °F - 37.0 °F 71% 30.43 in 10.0 mi Calm Calm - N/A   Clear
7:56 PM 37.9 °F - 37.0 °F 97% 30.45 in 10.0 mi Calm Calm - N/A   Clear
8:56 PM 37.0 °F - 35.1 °F 93% 30.46 in 10.0 mi Calm Calm - N/A   Clear
9:56 PM 36.0 °F - 34.0 °F 93% 30.47 in 10.0 mi Calm Calm - N/A   Clear
10:56 PM 35.1 °F - 34.0 °F 96% 30.48 in 10.0 mi Calm Calm - N/A   Clear
11:56 PM 33.1 °F - 33.1 °F 100% 30.48 in 10.0 mi Calm Calm - N/A   Clear